Regional Weather Roundup
Issued by NWS Memphis, TN

Current Version | Previous Version | Text Only | Print | Product List | Glossary On
Versions: 1 2 3 4 5 6 7 8 9 10 11 12 13 14 15 16 17 18 19 20 21 22 23 24 25 26 27 28 29 30 31 32 33 34 35 36 37 38 39 40 41 42 43 44 45 46 47 48 49 50
000
ASUS44 KMEG 160910
RWRMEG
MEMPHIS CWA HOURLY WEATHER ROUNDUP
NATIONAL WEATHER SERVICE MEMPHIS TN
400 AM CDT TUE SEP 16 2014

...WEST TENNESSEE...

CITY           SKY/WX    TMP DP  RH WIND       PRES   REMARKS
MEMPHIS INTL   MOCLDY    70  65  84 CALM      30.11S
NWS MEMPHIS      N/A     66 N/A N/A MISG        N/A
JACKSON        CLEAR     63  61  93 CALM      30.10F
LEXINGTON      CLOUDY    63  61  94 CALM      30.10S VSB 3/4
SAVANNAH       CLEAR     64  64 100 CALM      30.11S
DYERSBURG      CLEAR     64  55  72 CALM      30.11F
UNION CITY     CLOUDY    64  63  94 CALM      30.10S
PARIS          CLOUDY    64  61  88 CALM      30.11S
HUNTINGDON     PTCLDY    61  60  96 CALM      30.10F


...EASTERN ARKANSAS...

CITY           SKY/WX    TMP DP  RH WIND       PRES   REMARKS
JONESBORO      CLEAR     66  65  96 CALM      30.11R
WEST MEMPHIS   MOCLDY    66  66 100 CALM      30.09F
BATESVILLE     CLEAR     66  64  94 CALM      30.13R
NEWPORT        CLEAR     66  65  97 VRB3      30.13S
WALNUT RIDGE   CLOUDY    59  59 100 NE3       30.11S
BLYTHEVILLE    CLEAR     63  63 100 N5        30.11S
SEARCY         PTCLDY    67  67 100 CALM      30.12S
STUTTGART      CLOUDY    70  64  83 NW6       30.13S
PINE BLUFF     CLOUDY    70  68  93 N3        30.12R
MONTICELLO     CLOUDY    70  67  90 CALM      30.11S


...NORTH MISSISSIPPI...

CITY           SKY/WX    TMP DP  RH WIND       PRES   REMARKS
TUPELO         CLOUDY    72  68  87 NE5       30.09S
OXFORD         CLOUDY    68  68 100 NW3       30.13R
OLIVE BRANCH   PTCLDY    68  68 100 CALM      30.11S
CLARKSDALE       N/A     70  70 100 CALM      30.12R
CORINTH        FOG       68  66  94 CALM      30.09F VSB 1
GRENADA        MOCLDY    70  68  94 CALM      30.10S
GREENWOOD      MOCLDY    71  69  93 CALM      30.09F
COLUMBUS       CLOUDY    72  71  97 NW2       30.08S
STARKVILLE     FAIR      70  68  94 CALM      30.09S
GOLDEN TRIANGL CLOUDY    73  66  78 W3        30.09S


...SOUTHEAST MISSOURI...

CITY           SKY/WX    TMP DP  RH WIND       PRES   REMARKS
WEST PLAINS    CLOUDY    64  60  87 NE8       30.18R
POPLAR BLUFF   CLOUDY    66  60  81 N7        30.12S
CAPE GIRARDEAU CLOUDY    64  59  83 N13       30.14R


...NORTHWEST ALABAMA...

CITY           SKY/WX    TMP DP  RH WIND       PRES   REMARKS
MUSCLE SHOALS  CLOUDY    69  66  90 CALM      30.10F


...MIDDLE TENNESSEE...

CITY           SKY/WX    TMP DP  RH WIND       PRES   REMARKS
NASHVILLE      CLOUDY    66  64  93 CALM      30.10S
CLARKSVILLE    CLOUDY    67  63  87 W6        30.09S
COLUMBIA       CLEAR     63  63 100 CALM      30.09F
LEWISBURG      PTCLDY    62  62 100 CALM      30.10F


...WESTERN KENTUCKY...

CITY           SKY/WX    TMP DP  RH WIND       PRES   REMARKS
PADUCAH        CLOUDY    67  62  84 N10       30.12R
FORT CAMPBELL  MOCLDY    67  67 100 W3        30.09F


...CENTRAL ARKANSAS...

CITY           SKY/WX    TMP DP  RH WIND       PRES   REMARKS
LITTLE ROCK    CLOUDY    72  66  81 N5        30.12F


SKY/WX REPORTED AS FAIR MEANS FEW OR NO CLOUDS BELOW
12 THOUSAND FEET.




USA.gov is the U.S. government's official web portal to all federal, state and local government web resources and services.